Home > Weather > Nãgpur > Past weeks

Flag for India Past Weather in Nãgpur, Maharashtra, India — Yesterday and Last 2 Weeks

Now
93 °F

Haze.


Feels Like: 93 °F
Forecast: 87 / 107 °F
Wind: 7 mph from Northwest

Location: Nagpur Sonegaon

Current Time: Jun 1, 2016 at 3:37:26 AM

Latest Report: Jun 1, 2016 at 3:00 AM


Visibility: 2 mi

Pressure: 29.68 "Hg

Humidity: 32%

Dew Point: 59 °F

Location of NãgpurLocation

Past Weather in Nãgpur — Graph

°F

Nãgpur Temperature Yesterday

Maximum temperature yesterday: 108 °F (at 1:30 PM)
Minimum temperature yesterday: 82 °F (at 6:00 AM)
Average temperature yesterday: 97 °F

High & Low Weather Summary for the Past Weeks

 TemperatureHumidityPressure
High115 °F (May 17, 3:30 PM)71% (May 25, 8:30 AM)29.92 "Hg (May 25, 8:30 AM)
Low82 °F (May 31, 6:00 AM)10% (May 21, 6:00 PM)29.18 "Hg (May 20, 1:30 PM)
Average99 °F30%29.62 "Hg
* Reported May 17 1:30 AM — Jun 1 2:00 AM, Nãgpur, Weather by CustomWeather, © 2016

Note: Actual official high and low records may vary slightly from our data, if they occured in-between our weather recording intervals... More about our weather records

Advertising

Nãgpur Weather History for the Previous 24 Hours

Scroll right to see more
 ConditionsComfort  
Time TempWeatherWind HumidityBarometerVisibility
2:00 AM
Wed, Jun 1
91 °FHaze.6 mph34%29.68 "Hg2 mi
1:30 AM91 °FHaze.6 mph36%29.68 "Hg2 mi
1:00 AM93 °FHaze.3 mph34%29.68 "Hg2 mi
12:30 AM95 °FHaze.8 mph32%29.71 "Hg2 mi
12:00 AM91 °FHaze.2 mph34%29.71 "Hg2 mi
11:30 PM
Tue, May 31
93 °FHaze.2 mph34%29.71 "Hg2 mi
11:00 PM95 °FHaze.2 mph30%29.71 "Hg2 mi
10:30 PM93 °FHaze.2 mph32%29.71 "Hg2 mi
10:00 PM95 °FHaze.No wind30%29.71 "Hg2 mi
9:30 PM95 °FHaze.2 mph30%29.71 "Hg2 mi
8:30 PM97 °FHaze.No wind28%29.68 "Hg2 mi
8:00 PM99 °FHaze.2 mph29%29.65 "Hg2 mi
7:30 PM99 °FHaze.2 mph29%29.65 "Hg2 mi
7:00 PM100 °FScattered clouds.3 mph27%29.65 "Hg2 mi
6:30 PM100 °FScattered clouds.6 mph27%29.62 "Hg3 mi
6:00 PM102 °FScattered clouds.6 mph26%29.62 "Hg3 mi
5:30 PM100 °FScattered clouds.5 mph29%29.62 "Hg3 mi
5:00 PM100 °FScattered clouds.13 mph29%29.62 "Hg3 mi
4:30 PM108 °FScattered clouds.7 mph20%29.62 "Hg4 mi
4:00 PM106 °FScattered clouds.10 mph22%29.62 "Hg4 mi
3:30 PM108 °FScattered clouds.9 mph22%29.65 "Hg4 mi
3:00 PM104 °FScattered clouds.10 mph24%29.65 "Hg4 mi
2:30 PM100 °FScattered clouds.12 mph27%29.65 "Hg4 mi
2:00 PM100 °FScattered clouds.15 mph27%29.68 "Hg4 mi
1:30 PM108 °FScattered clouds.3 mph22%29.68 "Hg4 mi
1:00 PM106 °FPassing clouds.5 mph23%29.71 "Hg4 mi
12:30 PM104 °FScattered clouds.5 mph24%29.71 "Hg4 mi
12:00 PM106 °FScattered clouds.6 mph25%29.71 "Hg4 mi
11:30 AM106 °FScattered clouds.7 mph25%29.71 "Hg4 mi
11:00 AM104 °FScattered clouds.7 mph28%29.74 "Hg4 mi
10:30 AM102 °FPassing clouds.9 mph29%29.74 "Hg4 mi
10:00 AM102 °FPassing clouds.7 mph29%29.74 "Hg4 mi
9:30 AM100 °FPassing clouds.9 mph31%29.74 "Hg4 mi
9:00 AM99 °FPassing clouds.13 mph33%29.74 "Hg4 mi
8:30 AM99 °FClear.9 mph33%29.74 "Hg4 mi
8:00 AM97 °FPassing clouds.12 mph34%29.74 "Hg4 mi
7:30 AM93 °FPassing clouds.7 mph36%29.74 "Hg4 mi
7:00 AM90 °FPassing clouds.2 mph41%29.71 "Hg4 mi
6:30 AM86 °FHaze.3 mph46%29.71 "Hg3 mi
6:00 AM82 °FHaze.2 mph51%29.71 "Hg3 mi
5:30 AM84 °FHaze.2 mph48%29.68 "Hg3 mi
5:00 AM86 °FHaze.2 mph46%29.68 "Hg3 mi
4:30 AM88 °FHaze.2 mph43%29.68 "Hg3 mi
4:00 AM88 °FHaze.6 mph43%29.68 "Hg3 mi
3:30 AM90 °FHaze.5 mph43%29.65 "Hg3 mi
Weather by CustomWeather, © 2016

See weather overviewHow to use our weather pages